Terminal Aerodrome Forecast
Issued by NWS

Home | Current Version | Previous Version | Graphics & Text | Print | Product List | Glossary On
Versions: 1 2 3 4 5 6 7 8 9 10 11 12 13 14 15 16 17 18 19 20 21 22 23 24 25 26 27
000
FTUS45 KGGW 211700
TAFOLF
TAF
KOLF 211726Z 2118/2218 26010KT P6SM SCT250
     FM212200 26008KT P6SM FEW005 SCT060
     FM220500 VRB04KT P6SM SCT250
     FM221500 VRB05KT P6SM VCSH SCT060 BKN110=

USA.gov is the U.S. government's official web portal to all federal, state and local government web resources and services.